User: anonymous   Login
Location: Newark
(46.3567°N, 6.1428°E)
Time: 08:59:26
(UTC+00:00)
Language:

Oscar 11 - Orbit

View from above orbital plane
View from above orbital plane
View from above satellite
View from above satellite

Ground track
Ground track

The orbit data is extracted from the following two-line orbital elements,

1 14781U 84021B   19258.89278296 +.00000038 +00000-0 +10794-4 0  9998
2 14781 097.6072 279.3725 0009296 035.5839 324.5994 14.83105954890988
Epoch (UTC): 15 September 2019 21:25:36
Eccentricity: 0.0009296
inclination: 97.6072°
perigee height: 613 km
apogee height: 626 km
right ascension of ascending node: 279.3725°
argument of perigee: 35.5839°
revolutions per day: 14.83105954
mean anomaly at epoch: 324.5994°
orbit number at epoch: 89098

The dashed part of the orbit path shows where the satellite is in the earth's shadow,  

DLR